San Bernardino, CA

4:26 AM PST on November 17, 2019 (GMT -0800)
San Bernardino International

Weather History for KSBD - May, 2019

Change the Weather History Date:

Friday, May 24, 2019

  Actual Average Record
Temperature  
Mean Temperature 64 °F -  
Max Temperature 80 °F 81 °F 89 °F (2017)
Min Temperature 47 °F 53 °F 47 °F (2019)
Degree Days  
Heating Degree Days 2    
Growing Degree Days 14 (Base 50)    
Moisture  
Dew Point 47 °F    
Average Humidity 69    
Maximum Humidity 87    
Minimum Humidity 23    
Precipitation  
Precipitation 0.00 in - - ()
Sea Level Pressure  
Sea Level Pressure 29.97 in    
Wind  
Wind Speed 1 mph (WSW)    
Max Wind Speed 13 mph    
Max Gust Speed -    
Visibility 9 miles    
Events      
Averages and records for this station are not official NWS values.
T = Trace of Precipitation, MM = Missing Value Source: NWS Daily Summary

Daily Weather History Graph

Daily Weather History Graph

Search for Another Location

Airport or City:

Astronomy

May. 24, 2019 Rise Set
Actual Time 5:41 AM PDT 7:50 PM PDT
Civil Twilight 5:13 AM PDT 8:18 PM PDT
Nautical Twilight 4:39 AM PDT 8:53 PM PDT
Astronomical Twilight 4:01 AM PDT 9:30 PM PDT
Moon 12:18 AM PDT (5/24) 10:45 AM PDT (5/24)
Length of Visible Light 15h 04m
Length of Day
14h 08m
Waning Gibbous, 68% of the Moon is Illuminated
May 24
Waning Gibbous
May 26
Last Quarter
Jun 3
New
Jun 9
First Quarter
Jun 17
Full

Hourly Weather History & Observations

Time (PDT) Temp. Dew Point Humidity Pressure Visibility Wind Dir Wind Speed Gust Speed Precip Events Conditions
12:00 AM 55.4 °F 49.8 °F 81% 30.02 in 10.0 mi Calm Calm - N/A   Mostly Cloudy
12:20 AM 54.5 °F 49.3 °F 83% 30.02 in 10.0 mi Calm Calm - N/A   Scattered Clouds
12:40 AM 54.0 °F 48.9 °F 83% 30.02 in 10.0 mi Calm Calm - N/A   Clear
1:00 AM 54.3 °F 49.3 °F 83% 30.01 in 10.0 mi Calm Calm - N/A   Clear
1:01 AM 54.3 °F 49.5 °F 84% 30.01 in 10.0 mi Calm Calm - N/A   Clear
1:20 AM 54.0 °F 49.1 °F 84% 30.01 in 10.0 mi Calm Calm - N/A   Clear
1:40 AM 53.6 °F 48.6 °F 83% 30.01 in 10.0 mi Calm Calm - N/A   Clear
2:00 AM 52.7 °F 48.0 °F 84% 30.00 in 10.0 mi Calm Calm - N/A   Clear
2:20 AM 52.0 °F 47.5 °F 85% 30.00 in 10.0 mi Calm Calm - N/A   Clear
2:40 AM 51.4 °F 47.3 °F 86% 30.00 in 10.0 mi Calm Calm - N/A   Clear
3:00 AM 51.8 °F 47.5 °F 85% 29.99 in 7.0 mi Calm Calm - N/A   Clear
3:20 AM 51.1 °F 46.9 °F 86% 29.99 in 7.0 mi Calm Calm - N/A   Clear
3:40 AM 50.4 °F 46.4 °F 86% 29.99 in 7.0 mi Calm Calm - N/A   Clear
4:00 AM 50.2 °F 46.2 °F 86% 29.99 in 10.0 mi Calm Calm - N/A   Clear
4:20 AM 50.0 °F 46.0 °F 86% 29.99 in 7.0 mi Calm Calm - N/A   Clear
4:40 AM 49.5 °F 45.3 °F 86% 29.99 in 10.0 mi Calm Calm - N/A   Clear
5:00 AM 48.7 °F 44.6 °F 86% 29.99 in 10.0 mi Calm Calm - N/A   Clear
5:20 AM 47.1 °F 43.3 °F 87% 29.99 in 10.0 mi Calm Calm - N/A   Clear
5:40 AM 48.6 °F 44.8 °F 87% 29.99 in 10.0 mi Calm Calm - N/A   Clear
6:55 AM 50.0 °F 46.4 °F 87% 29.99 in 7.0 mi Calm Calm - N/A   Clear
7:49 AM 53.6 °F 48.2 °F 82% 29.99 in 7.0 mi Calm Calm - N/A   Clear
9:00 AM 57.2 °F 48.2 °F 72% 30.00 in 7.0 mi Calm Calm - N/A   Clear
9:50 AM 62.6 °F 48.2 °F 59% 30.00 in 7.0 mi Calm Calm - N/A   Clear
10:50 AM 66.2 °F 46.4 °F 49% 29.98 in 10.0 mi Calm Calm - N/A   Clear
11:50 AM 69.8 °F 48.2 °F 46% 29.97 in 10.0 mi Calm Calm - N/A   Clear
12:50 PM 73.4 °F 48.2 °F 41% 29.94 in 7.0 mi North - - N/A   Mostly Cloudy
1:50 PM - 44.6 °F N/A% 29.92 in 7.0 mi NW 8.1 mph - N/A   Scattered Clouds
2:50 PM 80.6 °F 39.2 °F 23% 29.90 in 7.0 mi WNW 4.6 mph - N/A   Scattered Clouds
3:50 PM 80.6 °F 41.0 °F 24% 29.88 in 7.0 mi WSW 9.2 mph - N/A   Scattered Clouds
4:50 PM 80.6 °F 41.0 °F 24% 29.87 in 7.0 mi WSW 9.2 mph - N/A   Scattered Clouds
6:50 PM 73.4 °F 46.4 °F 38% 29.87 in 7.0 mi WSW 12.7 mph - N/A   Scattered Clouds
7:50 PM 68.0 °F 46.4 °F 46% 29.89 in 7.0 mi West 9.2 mph - N/A   Scattered Clouds
9:40 PM 63.3 °F 47.3 °F 56% 29.92 in 10.0 mi West 4.6 mph - N/A   Scattered Clouds
10:00 PM 62.6 °F 47.3 °F 57% 29.93 in 10.0 mi West 4.6 mph - N/A   Clear
10:20 PM 61.7 °F 47.1 °F 59% 29.93 in 10.0 mi WSW 4.6 mph - N/A   Clear
10:40 PM 60.6 °F 46.4 °F 59% 29.93 in 10.0 mi WSW 5.8 mph - N/A   Clear
11:00 PM 60.3 °F 46.4 °F 60% 29.93 in 10.0 mi WSW 3.5 mph - N/A   Clear
11:20 PM 60.3 °F 46.4 °F 60% 29.93 in 10.0 mi SW 3.5 mph - N/A   Clear
11:40 PM 60.4 °F 46.4 °F 60% 29.93 in 10.0 mi SW 4.6 mph - N/A   Clear